Weather Roundup
Issued by NWS Chicago, IL

Home | Current Version | Previous Version | Text Only | Print | Product List | Glossary Off
Versions: 1 2 3 4 5 6 7 8 9 10 11 12 13 14 15 16 17 18 19 20 21 22 23 24 25 26 27 28 29 30 31 32 33 34 35 36 37 38 39 40 41 42 43 44 45 46 47 48 49 50

000
NZUS59 KLOT 301921
HRRLOT

CHICAGO AREA WEATHER ROUNDUP
NATIONAL WEATHER SERVICE CHICAGO/ROMEOVILLE IL
200 PM CDT THU JUL 30 2015

NOTE: "FAIR" INDICATES FEW OR NO CLOUDS BELOW 12,000 FEET WITH NO
SIGNIFICANT WEATHER AND/OR OBSTRUCTIONS TO VISIBILITY.

* THESE STATIONS ARE NOT UNDER NWS QUALITY CONTROL. THEY ALSO MAY NOT
  REPORT WEATHER SUCH AS PRECIPITATION OR FOG.

ILZ005-006-012>014-019>023-302000-
NORTHEAST ILLINOIS

CITY           SKY/WX    TMP DP  RH WIND       PRES   REMARKS
OHARE          MOSUNNY   87  52  29 W15G28    30.05F HX  85
MIDWAY         MOSUNNY   88  52  29 NW13      30.05F HX  85
AURORA         SUNNY     85  56  37 W15G22    30.08F HX  84
LANSING*       SUNNY     87  52  30 NW14G20   30.06S HX  85
JOLIET*        SUNNY     87  56  34 NW7       30.08F HX  85
WAUKEGAN       MOSUNNY   85  58  39 NW8G17    30.03F HX  84
DUPAGE AIRPORT MOSUNNY   85  53  33 W14G24    30.06F HX  83
WHEELING       MOSUNNY   87  52  29 NW13G24   30.06F HX  85
KANKAKEE*      SUNNY     86  58  39 W12       30.08F HX  85
MORRIS*        SUNNY     84  60  43 NW16      30.07F HX  84
LEWIS AIRPORT* SUNNY     85  53  33 NW14      30.07F HX  83
NORTHERLY IS     N/A     85  49  28 W15         N/A  HX  83
$$

WIZ051-052-058>065-066-070>072-302000-
SOUTHEAST WISCONSIN

CITY           SKY/WX    TMP DP  RH WIND       PRES   REMARKS
MILWAUKEE      MOSUNNY   86  51  29 NW25G33   30.01F HX  84
KENOSHA*       MOSUNNY   85  58  39 W15G29    30.03F HX  84
RACINE*        MOSUNNY   87  54  32 NW15G21   30.03F HX  85
BURLINGTON     SUNNY     85  51  30 NW18G26   30.04S HX  83
WAUKESHA       MOSUNNY   82  54  36 W23G29    30.04S HX  81
WEST BEND      MOSUNNY   82  52  34 W13G21    30.00F HX  81
$$

INZ001>003-010>013-019-020-302000-
NORTHWEST INDIANA

CITY           SKY/WX    TMP DP  RH WIND       PRES   REMARKS
GARY*          MOSUNNY   86  55  35 NW12      30.06F HX  84
MICHIGAN CITY* NOT AVBL
RENSSELAER*    NOT AVBL
VALPARAISO     SUNNY     85  54  34 W10       30.07F HX  83
$$

LMZ740>746-302000-
SOUTHERN LAKE MICHIGAN

STATION/POSITION TIME  SKY/WX   TEMP WIND        PRES    VSBY
                                AIR  DIR/SP/G
                 (UTC)          (F)  (DEG/KT/KT) (MB)    (MI)
HARRISON CRIB    1900            82  300/ 15/ 19   N/A
BURNHAM HARBOR   1900            86  300/  9/ 15   N/A
CALUMET HARBOR   1900            87  270/  4/ 12   N/A
BURNS HARBOR     1800            78  300/  3/  5 1018.6S
MICHIGAN CITY    1900            77  210/  6/  7   N/A
$$

ABBREVIATIONS USED IN REMARKS
   TC - TEMPERATURE IN CELSIUS
  WCI - WIND CHILL INDEX
   HX - HEAT INDEX
  VSB - VISIBILITY
$$


USA.gov is the U.S. government's official web portal to all federal, state and local government web resources and services.